User: anonymous   Login
Location: Croagnes
(43.9363°N, 5.3265°E)
Time: 06:55:49
(UTC+00:00)
Language:

LO-87 - Orbit

View from above orbital plane
View from above orbital plane
View from above satellite
View from above satellite

Ground track
Ground track

The orbit data is extracted from the following two-line orbital elements,

1 41557U 16033B   21298.89469656  .00003471  00000-0  12100-3 0  9992
2 41557  97.3937  32.1589 0013969 128.0737 341.0279 15.30231873301470
Epoch (UTC): 25 October 2021 21:28:21
Eccentricity: 0.0013969
inclination: 97.3937°
perigee height: 465 km
apogee height: 484 km
right ascension of ascending node: 32.1589°
argument of perigee: 128.0737°
revolutions per day: 15.30231873
mean anomaly at epoch: 341.0279°
orbit number at epoch: 30147

The dashed part of the orbit path shows where the satellite is in the earth's shadow,  

DLR